• Em Portugal
  • Lista de países
  • Para 7 dias
  • Temperatura da água
  • Mapas de satélite
  • Mapa do tempo
  • Widgets de tempo
  • user-avatar
    Iniciar Sessão

    Previsão horária em Tatinki

    Hoje, 28 Maio, Segunda-feira

    Tempo Temperatura Precipitação Vento Pressão Humidade
    00:00 +12°C° 0 mm 2 m/s 749 mmHg 81%
    01:00 +12°C° 0 mm 2 m/s 749 mmHg 83%
    02:00 +10°C° 0 mm 2 m/s 749 mmHg 85%
    03:00 +12°C° 0 mm 2 m/s 749 mmHg 86%
    04:00 +12°C° 0 mm 2 m/s 749 mmHg 86%
    05:00 +13°C° 0 mm 2 m/s 749 mmHg 87%
    06:00 +14°C° 0 mm 3 m/s 749 mmHg 83%
    07:00 +16°C° 0 mm 3 m/s 750 mmHg 79%
    08:00 +18°C° 0 mm 3 m/s 750 mmHg 75%
    09:00 +19°C° 0 mm 4 m/s 750 mmHg 70%
    10:00 +20°C° 0 mm 4 m/s 750 mmHg 66%
    11:00 +21°C° 0 mm 5 m/s 750 mmHg 62%
    12:00 +21°C° 0 mm 5 m/s 750 mmHg 59%
    13:00 +21°C° 0 mm 5 m/s 750 mmHg 57%
    14:00 +21°C° 0 mm 5 m/s 751 mmHg 54%
    15:00 +21°C° 0 mm 5 m/s 751 mmHg 56%
    16:00 +20°C° 0 mm 4 m/s 751 mmHg 59%
    17:00 +19°C° 0 mm 4 m/s 751 mmHg 62%
    18:00 +17°C° 0 mm 4 m/s 751 mmHg 66%
    19:00 +14°C° 0 mm 3 m/s 751 mmHg 70%
    20:00 +12°C° 0 mm 3 m/s 752 mmHg 74%
    21:00 +11°C° 0 mm 3 m/s 752 mmHg 74%
    22:00 +10°C° 0 mm 3 m/s 753 mmHg 74%
    23:00 +9°C° 0 mm 3 m/s 753 mmHg 74%

    Amanhã, 29 Maio, Terça-feira

    Tempo Temperatura Precipitação Vento Pressão Humidade
    00:00 +9°C° 0 mm 2 m/s 753 mmHg 73%
    01:00 +8°C° 0 mm 2 m/s 753 mmHg 73%
    02:00 +7°C° 0 mm 2 m/s 754 mmHg 72%
    03:00 +8°C° 0 mm 2 m/s 754 mmHg 73%
    04:00 +8°C° 0 mm 2 m/s 754 mmHg 74%
    05:00 +8°C° 0 mm 2 m/s 754 mmHg 75%
    06:00 +10°C° 0 mm 2 m/s 754 mmHg 69%
    07:00 +13°C° 0 mm 2 m/s 754 mmHg 63%
    08:00 +15°C° 0 mm 2 m/s 754 mmHg 57%
    09:00 +18°C° 0 mm 1 m/s 753 mmHg 54%
    10:00 +19°C° 0 mm 1 m/s 753 mmHg 51%
    11:00 +20°C° 0 mm 1 m/s 753 mmHg 47%
    12:00 +21°C° 0 mm 1 m/s 752 mmHg 47%
    13:00 +21°C° 0 mm 1 m/s 752 mmHg 46%
    14:00 +21°C° 0 mm 1 m/s 751 mmHg 46%
    15:00 +20°C° 0 mm 2 m/s 750 mmHg 49%
    16:00 +20°C° 0 mm 2 m/s 750 mmHg 53%
    17:00 +20°C° 0 mm 2 m/s 749 mmHg 57%
    18:00 +18°C° 0 mm 2 m/s 749 mmHg 63%
    19:00 +16°C° 0 mm 2 m/s 748 mmHg 69%
    20:00 +14°C° 0 mm 2 m/s 748 mmHg 74%
    21:00 +14°C° 0 mm 2 m/s 748 mmHg 76%
    22:00 +12°C° 0 mm 3 m/s 748 mmHg 78%
    23:00 +11°C° 0 mm 3 m/s 748 mmHg 80%

    Depois de amanhã, 30 Maio, Quarta-feira

    Tempo Temperatura Precipitação Vento Pressão Humidade
    00:00 +11°C° 0 mm 3 m/s 748 mmHg 82%
    01:00 +10°C° 0 mm 3 m/s 747 mmHg 84%
    02:00 +10°C° 0 mm 3 m/s 747 mmHg 86%
    03:00 +10°C° 0 mm 3 m/s 747 mmHg 85%
    04:00 +11°C° 0 mm 3 m/s 746 mmHg 84%
    05:00 +11°C° 0 mm 4 m/s 746 mmHg 84%
    06:00 +13°C° 0 mm 4 m/s 745 mmHg 80%
    07:00 +15°C° 0 mm 4 m/s 745 mmHg 76%
    08:00 +18°C° 0 mm 4 m/s 745 mmHg 72%
    09:00 +20°C° 0 mm 5 m/s 744 mmHg 69%
    10:00 +22°C° 0 mm 5 m/s 744 mmHg 66%
    11:00 +23°C° 0 mm 5 m/s 743 mmHg 63%
    12:00 +25°C° 0 mm 5 m/s 743 mmHg 63%
    13:00 +24°C° 0 mm 6 m/s 742 mmHg 62%
    14:00 +26°C° 0 mm 6 m/s 742 mmHg 61%
    15:00 +25°C° 0,4 mm 5 m/s 741 mmHg 67%
    16:00 +23°C° 0,4 mm 5 m/s 741 mmHg 73%
    17:00 +22°C° 0,4 mm 5 m/s 741 mmHg 79%
    18:00 +21°C° 0,1 mm 5 m/s 740 mmHg 83%
    19:00 +20°C° 0,1 mm 4 m/s 740 mmHg 87%
    20:00 +19°C° 0,1 mm 4 m/s 740 mmHg 91%
    21:00 +18°C° 0 mm 4 m/s 740 mmHg 93%
    22:00 +18°C° 0 mm 4 m/s 739 mmHg 94%
    23:00 +17°C° 0 mm 3 m/s 739 mmHg 95%

    31 Maio, Quinta-feira

    Tempo Temperatura Precipitação Vento Pressão Humidade
    00:00 +17°C° 0 mm 3 m/s 739 mmHg 95%
    01:00 +16°C° 0 mm 3 m/s 738 mmHg 96%
    02:00 +16°C° 0 mm 3 m/s 738 mmHg 96%
    03:00 +15°C° 0,1 mm 4 m/s 738 mmHg 95%
    04:00 +15°C° 0,1 mm 4 m/s 737 mmHg 95%
    05:00 +15°C° 0,1 mm 4 m/s 737 mmHg 94%
    06:00 +18°C° 0,4 mm 4 m/s 737 mmHg 90%
    07:00 +19°C° 0,4 mm 4 m/s 737 mmHg 86%
    08:00 +20°C° 0,4 mm 4 m/s 737 mmHg 82%
    09:00 +20°C° 0,5 mm 4 m/s 737 mmHg 79%
    10:00 +20°C° 0,5 mm 5 m/s 737 mmHg 76%
    11:00 +20°C° 0,5 mm 5 m/s 737 mmHg 72%
    12:00 +20°C° 0,1 mm 5 m/s 737 mmHg 69%
    13:00 +20°C° 0,1 mm 5 m/s 738 mmHg 66%
    14:00 +20°C° 0,1 mm 5 m/s 738 mmHg 63%
    15:00 +20°C° 0 mm 5 m/s 738 mmHg 64%
    16:00 +19°C° 0 mm 4 m/s 738 mmHg 65%
    17:00 +19°C° 0 mm 4 m/s 738 mmHg 66%
    18:00 +17°C° 0 mm 4 m/s 739 mmHg 69%
    19:00 +15°C° 0 mm 4 m/s 739 mmHg 71%
    20:00 +13°C° 0 mm 4 m/s 739 mmHg 74%
    21:00 +13°C° 0 mm 5 m/s 740 mmHg 72%
    22:00 +12°C° 0 mm 5 m/s 740 mmHg 71%
    23:00 +12°C° 0 mm 5 m/s 740 mmHg 69%

    1 Junho, Sexta-feira

    Tempo Temperatura Precipitação Vento Pressão Humidade
    00:00 +10°C° 0 mm 5 m/s 740 mmHg 68%
    01:00 +9°C° 0 mm 5 m/s 741 mmHg 66%
    02:00 +9°C° 0 mm 5 m/s 741 mmHg 64%
    03:00 +8°C° 0 mm 5 m/s 741 mmHg 66%
    04:00 +8°C° 0 mm 5 m/s 741 mmHg 68%
    05:00 +8°C° 0 mm 5 m/s 741 mmHg 69%
    06:00 +9°C° 0 mm 6 m/s 742 mmHg 68%
    07:00 +10°C° 0 mm 6 m/s 742 mmHg 67%
    08:00 +10°C° 0 mm 6 m/s 742 mmHg 66%
    09:00 +11°C° 0 mm 6 m/s 743 mmHg 64%
    10:00 +11°C° 0 mm 6 m/s 743 mmHg 62%
    11:00 +12°C° 0 mm 7 m/s 743 mmHg 60%
    12:00 +13°C° 0 mm 6 m/s 743 mmHg 60%
    13:00 +13°C° 0 mm 6 m/s 743 mmHg 60%
    14:00 +13°C° 0 mm 6 m/s 743 mmHg 60%
    15:00 +13°C° 0 mm 6 m/s 743 mmHg 63%
    16:00 +12°C° 0 mm 5 m/s 743 mmHg 65%
    17:00 +12°C° 0 mm 5 m/s 743 mmHg 68%
    18:00 +12°C° 0 mm 5 m/s 743 mmHg 68%
    19:00 +10°C° 0 mm 5 m/s 743 mmHg 67%
    20:00 +10°C° 0 mm 5 m/s 744 mmHg 67%
    21:00 +9°C° 0 mm 5 m/s 744 mmHg 67%
    22:00 +9°C° 0 mm 5 m/s 744 mmHg 66%
    23:00 +8°C° 0 mm 5 m/s 744 mmHg 66%

    2 Junho, Sábado

    Tempo Temperatura Precipitação Vento Pressão Humidade
    00:00 +8°C° 0 mm 5 m/s 744 mmHg 66%
    01:00 +8°C° 0 mm 6 m/s 744 mmHg 67%
    02:00 +7°C° 0 mm 6 m/s 744 mmHg 67%
    03:00 +7°C° 0 mm 6 m/s 744 mmHg 68%
    04:00 +7°C° 0 mm 6 m/s 745 mmHg 69%
    05:00 +7°C° 0 mm 6 m/s 745 mmHg 71%
    06:00 +8°C° 0 mm 7 m/s 745 mmHg 68%
    07:00 +10°C° 0 mm 7 m/s 745 mmHg 66%
    08:00 +11°C° 0 mm 8 m/s 745 mmHg 64%
    09:00 +12°C° 0 mm 8 m/s 745 mmHg 63%
    10:00 +13°C° 0 mm 8 m/s 745 mmHg 62%
    11:00 +15°C° 0 mm 8 m/s 745 mmHg 60%
    12:00 +15°C° 0 mm 7 m/s 745 mmHg 61%
    13:00 +16°C° 0 mm 7 m/s 745 mmHg 62%
    14:00 +16°C° 0 mm 7 m/s 744 mmHg 63%
    15:00 +16°C° 0 mm 6 m/s 744 mmHg 65%
    16:00 +16°C° 0 mm 6 m/s 744 mmHg 68%
    17:00 +15°C° 0 mm 5 m/s 744 mmHg 70%
    18:00 +14°C° 0 mm 5 m/s 744 mmHg 72%
    19:00 +13°C° 0 mm 5 m/s 744 mmHg 74%
    20:00 +13°C° 0 mm 4 m/s 744 mmHg 75%
    21:00 +12°C° 0 mm 4 m/s 744 mmHg 76%
    22:00 +12°C° 0 mm 4 m/s 744 mmHg 76%
    23:00 +10°C° 0 mm 5 m/s 744 mmHg 76%
    Mostrar mais